Weather History for LHSN - February, 2013

Change the Weather History Date:

Sunday, February 3, 2013

  Actual Average (LHBP) Record (LHBP)
Temperature  
Mean Temperature 34 °F -  
Max Temperature 39 °F 38 °F 51 °F (2004)
Min Temperature 30 °F 23 °F 6 °F (2012)
Degree Days  
Heating Degree Days 30    
Moisture  
Dew Point 32 °F    
Average Humidity 93    
Maximum Humidity 100    
Minimum Humidity 87    
Precipitation  
Precipitation 0.00 in - - ()
Sea Level Pressure  
Sea Level Pressure 29.67 in    
Wind  
Wind Speed 10 mph ()    
Max Wind Speed 18 mph    
Max Gust Speed 27 mph    
Visibility 3.6 miles    
Events Rain , Snow    
Averages and records for this station are not official NWS values.
T = Trace of Precipitation, MM = Missing Value Source: Averaged Metar Reports

Daily Weather History Graph

Daily Weather History Graph

Search for Another Location

Airport or City:

Trip Planner

Search our weather history database for the weather conditions in past years. The results will help you decide how hot, cold, wet, or windy it might be!

Date:

Astronomy

Feb. 03, 2013 Rise Set
Actual Time 7:01 AM CET 4:44 PM CET
Civil Twilight 6:29 AM CET 5:17 PM CET
Nautical Twilight 5:52 AM CET 5:53 PM CET
Astronomical Twilight 5:17 AM CET 6:29 PM CET
Moon 12:08 AM CET (2/3) 10:07 AM CET (2/3)
Length of Visible Light 10h 47m
Length of Day
9h 42m
Waning Gibbous, 51% of the Moon is Illuminated
Feb 3
Waning Gibbous
Feb 3
Last Quarter
Feb 10
New
Feb 17
First Quarter
Feb 25
Full

Hourly Weather History & Observations

Time (CET) Temp. Windchill Dew Point Humidity Pressure Visibility Wind Dir Wind Speed Gust Speed Precip Events Conditions
12:15 AM 39.2 °F 33.1 °F 37.4 °F 93% 29.42 in 6.2 mi NNE 8.9 mph - N/A   Overcast
12:45 AM 39.2 °F 32.2 °F 37.4 °F 93% 29.42 in 6.2 mi NNE 11.2 mph - N/A   Overcast
1:15 AM 39.2 °F 32.2 °F 35.6 °F 87% 29.44 in 6.2 mi NE 11.2 mph - N/A   Overcast
1:38 AM 39.2 °F 31.3 °F 35.6 °F 87% 29.44 in 6.2 mi NE 13.4 mph - N/A Rain Light Rain
1:45 AM 39.2 °F 31.3 °F 35.6 °F 87% 29.44 in 6.2 mi NE 13.4 mph - N/A Rain Light Rain
2:15 AM 39.2 °F 32.2 °F 35.6 °F 87% 29.44 in 6.2 mi NE 11.2 mph - N/A Rain Light Rain
2:45 AM 39.2 °F 30.6 °F 35.6 °F 87% 29.44 in 6.2 mi NE 15.7 mph - N/A Rain Light Rain
3:15 AM 37.4 °F 28.3 °F 33.8 °F 87% 29.44 in 6.2 mi NNE 15.7 mph - N/A Rain Light Rain
3:45 AM 37.4 °F 28.3 °F 33.8 °F 87% 29.47 in 6.2 mi NNE 15.7 mph - N/A Rain Light Rain
4:45 AM 35.6 °F 27.7 °F 32.0 °F 87% 29.50 in 3.7 mi NNE 11.2 mph - N/A Rain Rain
5:15 AM 33.8 °F 25.4 °F 32.0 °F 93% 29.50 in 3.1 mi North 11.2 mph - N/A Rain , Snow Snow
5:19 AM - - - N/A% - 5.0 mi NW 8.9 mph - N/A   Overcast
5:33 AM - - - N/A% - 5.0 mi NW 8.9 mph - N/A   Overcast
5:45 AM - - - N/A% - 5.0 mi North 11.2 mph - N/A   Overcast
6:15 AM 32.0 °F 23.2 °F 32.0 °F 100% 29.53 in 0.9 mi North 11.2 mph - N/A Snow Snow
6:45 AM 32.0 °F 24.3 °F 32.0 °F 100% 29.53 in 0.6 mi North 8.9 mph - N/A Snow Snow
7:15 AM 32.0 °F 25.7 °F 32.0 °F 100% 29.56 in 0.9 mi NNW 6.7 mph - N/A Snow Light Snow
7:45 AM 33.8 °F 27.9 °F 32.0 °F 93% 29.59 in 1.2 mi NNW 6.7 mph - N/A Snow Light Snow
8:15 AM 33.8 °F 25.4 °F 32.0 °F 93% 29.59 in 1.2 mi North 11.2 mph - N/A Rain , Snow Light Snow
8:39 AM 33.8 °F 26.5 °F 32.0 °F 93% 29.59 in 3.1 mi NNW 8.9 mph - N/A Rain , Snow Light Snow
8:45 AM - - - N/A% - 4.3 mi NW 13.4 mph - N/A   Overcast
9:15 AM 33.8 °F 26.5 °F 32.0 °F 93% 29.62 in 3.1 mi NW 8.9 mph - N/A Rain Light Rain
9:45 AM 33.8 °F 25.4 °F 32.0 °F 93% 29.59 in 3.1 mi NW 11.2 mph - N/A Rain , Snow Light Rain
10:15 AM 33.8 °F 25.4 °F 32.0 °F 93% 29.62 in 1.9 mi WNW 11.2 mph - N/A Rain , Snow Light Snow
10:45 AM 33.8 °F 25.4 °F 32.0 °F 93% 29.65 in 3.1 mi WNW 11.2 mph - N/A Rain , Snow Light Rain
11:15 AM 35.6 °F 26.8 °F 32.0 °F 87% 29.68 in 3.7 mi WNW 13.4 mph - N/A Rain , Snow Light Rain
11:45 AM - - - N/A% - 3.7 mi WNW 11.2 mph - N/A   Scattered Clouds
12:15 PM 35.6 °F 26.8 °F 33.8 °F 93% 29.68 in 3.1 mi WNW 13.4 mph - N/A Rain , Snow Light Snow
12:45 PM 33.8 °F 24.5 °F 32.0 °F 93% 29.71 in 2.5 mi WNW 13.4 mph - N/A Snow Light Snow
1:15 PM 33.8 °F 24.5 °F 32.0 °F 93% 29.71 in 1.2 mi WNW 13.4 mph 24.6 mph N/A Snow Snow
1:45 PM 33.8 °F 23.7 °F 32.0 °F 93% 29.71 in 1.2 mi WNW 15.7 mph 26.8 mph N/A Snow Snow
2:15 PM 33.8 °F 24.5 °F 32.0 °F 93% 29.74 in 0.9 mi NW 13.4 mph - N/A Snow Snow
2:23 PM - - - N/A% - 3.7 mi WNW 11.2 mph - N/A   Scattered Clouds
2:45 PM - - - N/A% - 3.7 mi WNW 11.2 mph - N/A   Scattered Clouds
3:15 PM 33.8 °F 23.0 °F 32.0 °F 93% 29.77 in 1.9 mi NW 17.9 mph - N/A Snow Light Snow
3:45 PM 33.8 °F 23.0 °F 32.0 °F 93% 29.80 in 2.5 mi NW 17.9 mph - N/A Snow Light Snow
4:15 PM 33.8 °F 24.5 °F 32.0 °F 93% 29.80 in 3.1 mi NW 13.4 mph - N/A Snow Light Snow
4:45 PM 33.8 °F 23.7 °F 32.0 °F 93% 29.83 in 5.0 mi NW 15.7 mph - N/A Snow Light Snow
5:15 PM 33.8 °F 25.4 °F 32.0 °F 93% 29.83 in 5.0 mi NW 11.2 mph - N/A Snow Light Snow
5:45 PM - - - N/A% - 5.0 mi West 8.9 mph - N/A   Overcast
6:15 PM 32.0 °F 24.3 °F 30.2 °F 93% 29.86 in 3.1 mi WNW 8.9 mph - N/A Snow Light Snow
6:45 PM 32.0 °F 24.3 °F 32.0 °F 100% 29.86 in 3.7 mi WNW 8.9 mph - N/A Snow Light Snow
7:15 PM 32.0 °F 24.3 °F 30.2 °F 93% 29.89 in 3.1 mi West 8.9 mph - N/A Snow Light Snow
7:45 PM 32.0 °F 24.3 °F 30.2 °F 93% 29.92 in 0.9 mi West 8.9 mph - N/A Snow Snow
7:53 PM - - - N/A% - 3.7 mi West 8.9 mph - N/A   Overcast
8:15 PM 32.0 °F 24.3 °F 30.2 °F 93% 29.92 in 0.6 mi West 8.9 mph - N/A Snow Snow
8:45 PM - - - N/A% - 3.7 mi West 8.9 mph - N/A   Scattered Clouds
9:05 PM - - - N/A% - 3.7 mi West 8.9 mph - N/A   Overcast
9:15 PM 32.0 °F 24.3 °F 30.2 °F 93% 29.92 in 1.6 mi NNW 8.9 mph - N/A Snow Light Snow
9:45 PM 32.0 °F 25.7 °F 30.2 °F 93% 29.92 in 5.0 mi NW 6.7 mph - N/A   Overcast
10:15 PM 32.0 °F 27.6 °F 30.2 °F 93% 29.92 in 5.0 mi West 4.5 mph - N/A   Mostly Cloudy
10:45 PM 30.2 °F 25.5 °F 30.2 °F 100% 29.92 in 5.0 mi West 4.5 mph - N/A   Unknown
11:15 PM 30.2 °F 23.5 °F 28.4 °F 93% 29.92 in 5.0 mi West 6.7 mph - N/A   Unknown
11:45 PM - - - N/A% - 3.1 mi North - - N/A   Mostly Cloudy